Date,TemperatureHighF,TemperatureAvgF,TemperatureLowF,DewpointHighF,DewpointAvgF,DewpointLowF,HumidityHigh,HumidityAvg,HumidityLow,PressureMaxIn,PressureMinIn,WindSpeedMaxMPH,WindSpeedAvgMPH,GustSpeedMaxMPH,PrecipitationSumIn
2013-8-1,84.0,77.4,67.0,61.0,51.2,44.0,70,41,28,30.35,30.19,23,13,30,0.00
2013-8-2,87.0,78.3,68.0,58.0,51.0,46.0,66,39,25,30.25,30.12,24,11,33,0.00
2013-8-3,88.0,77.3,65.0,60.0,52.8,45.0,75,45,25,30.27,30.18,20,11,27,0.00
2013-8-4,89.0,81.0,74.0,55.0,49.2,42.0,51,33,22,30.27,30.14,24,9,33,0.00
2013-8-5,88.0,77.9,69.0,58.0,50.2,42.0,64,39,23,30.25,30.11,31,16,37,0.00
2013-8-6,83.0,75.0,68.0,58.0,51.9,45.0,70,46,27,30.23,30.11,33,22,42,0.00
2013-8-7,80.0,70.9,64.0,56.0,53.1,48.0,72,55,33,30.22,30.09,34,24,46,0.00
2013-8-8,86.0,75.1,64.0,54.0,46.1,36.0,66,39,21,30.21,30.11,24,16,35,0.00
2013-8-9,89.0,78.9,72.0,47.0,39.9,34.0,36,25,16,30.25,30.15,23,13,35,0.00
2013-8-10,75.0,69.7,65.0,58.0,53.8,47.0,69,57,37,30.38,30.22,41,23,50,0.00
2013-8-11,76.0,64.8,51.0,62.0,58.3,51.0,100,81,55,30.36,30.23,24,14,32,0.00
2013-8-12,80.0,71.5,65.0,62.0,58.7,51.0,81,64,38,30.30,30.19,23,14,40,0.00
2013-8-13,82.0,73.2,66.0,61.0,53.2,-99.9,80,54,35,30.31,30.20,17,11,21,0.00
2013-8-14,84.0,75.1,67.0,59.0,54.2,48.0,66,49,33,30.32,30.19,21,14,42,0.00
2013-8-15,82.0,62.3,62.0,59.0,29.6,-99.9,86,48,32,30.32,30.24,27,10,37,0.00
2013-8-16,86.0,75.7,66.0,56.0,49.1,39.0,63,41,21,30.32,30.29,23,7,27,0.00
2013-8-17,88.0,78.4,72.0,50.0,42.2,-99.9,40,29,18,30.29,30.29,23,9,29,0.00
2013-8-18,87.0,79.7,72.0,50.0,46.3,43.0,40,31,22,30.27,30.22,30,10,41,0.00
2013-8-19,86.0,68.1,71.0,52.0,32.4,-99.9,50,35,27,30.29,30.22,24,13,31,0.00
2013-8-20,80.0,73.3,67.0,56.0,48.1,-99.9,60,44,30,30.26,30.18,24,9,30,0.00
2013-8-21,83.0,75.2,68.0,53.0,45.4,33.0,58,36,20,30.27,30.22,22,13,30,0.00
2013-8-22,81.0,75.2,67.0,48.0,39.0,33.0,43,27,19,30.28,30.18,23,15,28,0.00
2013-8-23,80.0,72.2,64.0,54.0,50.7,46.0,63,47,31,30.24,30.10,37,17,47,0.00
2013-8-24,78.0,70.1,62.0,55.0,48.9,-99.9,71,50,35,30.27,30.15,31,21,41,0.00
2013-8-25,82.0,73.3,65.0,57.0,51.4,48.0,76,47,30,30.34,30.20,37,21,44,0.00
2013-8-26,81.0,72.5,64.0,54.0,50.8,47.0,66,47,29,30.34,30.17,38,27,47,0.00
2013-8-27,74.0,68.7,63.0,57.0,54.0,49.0,72,59,46,30.29,30.22,31,23,38,0.00
2013-8-28,72.0,68.3,63.0,64.0,58.3,56.0,99,71,56,30.32,30.27,15,10,22,0.00
2013-8-29,69.0,64.4,60.0,64.0,60.9,57.0,99,89,65,30.38,30.31,16,9,20,0.00
2013-8-30,80.0,72.6,65.0,61.0,58.0,55.0,83,60,47,30.34,30.25,15,10,25,0.00
2013-8-31,85.0,76.2,72.0,60.0,48.6,-99.9,59,41,27,30.21,30.16,17,12,24,0.00